Location: Lafig�re
(44.4503°N, 4.0357°E)
Time: 13:20:43
(UTC+00:00)

deb Explorer IX - Pass Details

Date: 27 January 2021
Orbit: 537 x 1102 km, 38.8° (Epoch: 01 March)

Event Time Altitude Azimuth Distance (km) Brightness Sun altitude
Rises 16:53:54 0° 244° (WSW) 3,830 ? -2.1°
Reaches altitude 10° 16:56:51 10° 239° (WSW) 2,821 ? -2.6°
Maximum altitude 17:03:18 45° 169° (S) 1,258 ? -3.6°
Drops below altitude 10° 17:08:57 10° 98° (E) 2,472 ? -4.5°
Enters shadow 17:10:42 - 94° (E) 3,072 ? -4.8°
Sets 17:11:23 0° 92° (E) 3,317 - -5.0°
